Date,TemperatureHighF,TemperatureAvgF,TemperatureLowF,DewpointHighF,DewpointAvgF,DewpointLowF,HumidityHigh,HumidityAvg,HumidityLow,PressureMaxIn,PressureMinIn,WindSpeedMaxMPH,WindSpeedAvgMPH,GustSpeedMaxMPH,PrecipitationSumIn
2013-12-1,49,36,26,37,31,25,98,86,56,30.37,30.03,3,0,7,0.00
2013-12-2,54,38,27,42,34,26,97,87,59,30.04,29.87,3,0,5,0.00
2013-12-3,56,42,32,42,37,31,98,83,50,30.02,29.87,4,0,9,0.00
2013-12-4,56,48,36,52,45,34,95,91,82,30.11,30.01,3,0,9,0.00
2013-12-5,63,56,46,62,55,46,99,95,90,30.11,29.97,6,1,12,0.00
2013-12-6,66,55,40,63,54,39,98,95,84,30.14,29.92,10,2,14,0.15
2013-12-7,43,38,29,40,34,27,98,87,68,30.52,30.07,9,2,16,0.34
2013-12-8,36,32,29,36,29,23,98,89,72,30.57,30.23,10,1,12,0.35
2013-12-9,39,36,33,38,35,33,99,98,97,30.24,30.03,6,0,9,1.10
2013-12-10,35,33,28,35,32,26,99,97,89,30.23,29.92,3,0,12,0.22
2013-12-11,40,30,23,28,25,22,98,84,51,30.42,30.23,5,0,10,0.01
2013-12-12,32,26,20,26,19,13,97,74,50,30.42,30.25,7,1,16,0.00
2013-12-13,42,30,19,25,21,16,92,72,39,30.33,30.23,10,1,15,0.00
2013-12-14,56,39,29,56,36,24,99,88,72,30.35,29.64,4,0,14,0.72
2013-12-15,56,40,28,56,36,26,99,84,65,29.96,29.59,6,1,17,0.00
2013-12-16,35,31,27,29,25,22,95,80,59,30.23,29.95,8,0,11,0.00
2013-12-17,49,38,31,41,34,25,97,86,69,30.19,29.92,5,1,10,0.17
2013-12-18,38,31,25,32,27,24,97,88,58,30.25,29.94,7,0,12,0.07
2013-12-19,54,39,25,36,31,24,98,75,45,30.24,30.10,7,1,19,0.02
2013-12-20,59,52,45,54,44,34,88,73,62,30.15,30.03,8,1,18,0.00
2013-12-21,68,61,54,63,54,49,92,79,65,30.06,29.96,12,2,21,0.00
2013-12-22,73,64,60,66,62,59,98,92,79,30.05,29.91,11,2,18,0.28
2013-12-23,64,57,40,64,56,36,98,95,84,30.19,29.94,7,1,15,0.53
2013-12-24,41,37,27,35,27,11,81,67,49,30.43,30.14,16,4,18,0.00
2013-12-25,32,26,21,20,15,12,91,65,47,30.56,30.42,5,0,12,0.00
2013-12-26,44,29,19,28,23,18,100,79,44,30.42,30.22,4,0,10,0.00
2013-12-27,48,33,23,29,24,19,96,74,32,30.44,30.33,6,0,13,0.00
2013-12-28,54,40,29,35,31,26,96,74,40,30.34,30.14,7,0,13,0.00
2013-12-29,62,47,42,62,44,33,99,89,62,30.14,29.46,14,1,23,0.07
2013-12-30,48,40,32,44,35,22,99,84,62,30.18,29.83,8,1,12,0.02
2013-12-31,44,35,28,32,24,21,80,64,49,30.34,30.11,8,1,14,0.00